Probability
1 0 1 1 1 0 0 0 0 0 0 0 0 0 0 0 0 0 0 0 0 0 0 0 0 0 0 0 0 0 0 0 0 0 0 0 0 0 0 0 0 0 0
3 1 1 1 0 0 0 0 0 0 0 0 0 1 1 1 0 0 0 0 0 0 0 0 0 0 0 0 0 0 0 0 0 0 0 0 0 0 0 0 0 0 0
6 3 1 1 1 1 1 0 0 0 0 0 1 2 2 1 0 0 0 0 0 0 0 0 0 0 0 0 0 0 0 0 0 0 0 0 0 0 0 0 0 0 0
8 4 1 1 1 1 0 0 0 0 0 0 1 2 3 1 0 0 0 0 0 0 0 0 0 0 0 0 0 0 0 0 0 0 0 0 0 0 0 0 0 0 0
10 7 3 2 2 1 1 1 1 1 1 0 1 2 2 1 1 0 0 0 0 1 1 1 0 0 0 0 0 0 0 0 0 0 0 0 0 0 0 0 0 0 0
11 9 6 5 4 3 3 2 2 2 2 1 1 2 3 2 1 0 0 0 0 1 2 2 1 0 0 0 0 0 0 0 0 0 0 0 0 0 1 0 0 0 0
7 8 8 7 5 4 4 4 4 4 3 3 2 2 2 2 1 0 0 0 0 1 2 2 1 1 1 1 0 0 0 0 0 0 0 0 0 0 0 0 0 0 0
4 6 9 7 6 6 6 7 8 7 5 4 3 2 1 1 0 0 0 0 0 0 1 1 0 1 2 2 1 1 1 0 0 0 0 0 0 0 0 0 0 0 0
3 6 9 8 7 7 10 12 13 10 7 6 5 3 1 0 0 0 0 0 0 0 0 0 0 0 1 3 3 2 1 0 0 0 0 0 0 0 0 0 0 0 0
5 7 9 9 9 10 11 13 13 12 9 6 5 3 1 0 0 0 0 0 0 0 0 0 0 0 0 2 4 3 1 0 0 0 0 0 0 0 0 0 0 0 0
7 7 10 12 12 14 13 13 13 12 8 5 3 1 0 0 0 0 0 0 0 0 0 0 0 0 0 1 3 2 0 0 0 1 0 0 0 0 0 0 0 0 0
8 8 10 15 17 17 16 16 15 12 7 4 2 1 0 0 0 0 0 0 0 0 0 0 1 2 1 1 1 1 1 0 0 0 0 0 0 0 0 0 0 0 0
8 8 11 16 17 16 16 17 16 11 7 5 4 2 1 0 0 0 0 0 0 0 0 1 2 2 2 2 1 1 1 0 0 0 0 0 0 0 0 0 0 0 0
8 10 14 16 15 12 12 15 14 10 7 5 4 4 2 1 0 1 1 1 0 0 0 1 3 3 2 3 2 1 1 0 0 0 0 0 0 0 0 0 0 0 0
9 11 16 17 15 12 12 14 12 10 9 5 3 4 3 2 1 2 2 2 1 1 1 3 5 6 3 3 2 1 0 0 0 0 0 0 0 0 0 0 0 0 0
13 14 15 15 16 15 15 14 11 9 10 7 3 2 4 3 3 4 4 3 3 2 3 5 8 10 8 5 3 2 1 1 0 0 0 0 0 0 0 0 0 0 0
19 18 15 14 15 15 15 12 9 8 9 7 3 2 3 4 5 6 5 4 6 5 4 4 8 12 12 9 5 4 2 1 0 0 0 0 0 0 0 0 0 0 0
19 19 17 15 14 14 14 12 8 8 9 7 4 3 2 3 6 7 5 5 6 6 4 2 4 7 9 9 7 5 2 1 0 0 0 0 0 0 0 0 0 0 0
15 16 16 14 12 13 14 13 11 10 10 9 8 7 4 5 7 7 5 5 5 4 3 1 1 2 4 7 8 4 1 0 0 0 0 0 0 0 0 0 0 0 0
12 13 14 13 11 11 12 12 12 11 11 11 10 7 5 5 6 6 5 5 4 2 1 1 1 1 3 5 6 4 1 0 0 0 0 0 0 0 0 0 0 0 0
12 12 13 11 9 8 8 9 10 11 12 10 8 5 3 2 2 2 2 3 2 1 1 1 1 1 2 2 2 1 0 0 0 1 1 0 0 0 0 0 0 0 0
12 11 10 9 8 6 4 4 6 9 10 9 6 4 2 0 0 0 0 0 0 0 0 1 2 2 1 1 0 0 1 1 1 1 1 0 0 0 0 0 0 0 0
14 12 9 9 8 6 2 1 3 4 6 6 6 4 2 1 0 0 0 0 0 0 0 1 1 1 1 1 1 1 1 1 1 1 1 0 0 0 0 0 0 0 0
16 14 12 11 10 6 2 0 1 1 2 4 4 4 2 1 0 0 0 0 0 0 0 0 0 0 0 0 0 0 1 1 0 0 0 0 0 0 0 0 0 0 0
13 13 12 12 10 6 2 0 0 0 1 2 3 2 1 0 0 0 0 0 0 0 0 0 0 0 0 0 0 0 0 0 0 0 0 0 0 0 0 0 0 0 0
10 9 9 10 10 6 2 0 0 0 1 2 2 1 0 0 0 0 0 0 0 0 0 0 0 0 0 0 0 0 0 0 0 0 0 0 0 0 0 0 0 0 0
Wind_Speed
3 4 3 2 4 4 4 3 2 4 3 2 1 3 3 3 7 7 6 12 11 10 10 9 9 9 8 8 8 8 8 7 7 6 6 6 6 6 6 6 5 5 5
4 3 3 2 2 2 3 2 3 3 2 2 1 2 2 3 5 8 7 8 11 10 9 9 9 9 9 8 8 8 8 7 7 7 6 6 6 5 5 5 5 5 5
5 4 3 3 2 3 3 2 3 2 3 3 2 2 2 2 3 6 7 6 7 9 9 9 9 9 9 9 8 8 8 7 7 8 7 6 6 6 5 5 5 5 5
5 3 3 3 3 3 2 2 2 2 2 2 3 2 2 2 3 4 5 6 6 6 8 10 9 9 9 9 9 9 9 8 8 8 8 8 7 7 6 6 6 6 6
5 3 2 3 3 2 2 3 2 1 2 2 3 3 2 3 3 4 4 5 6 6 6 9 10 10 11 10 10 10 9 9 9 9 9 9 9 8 8 7 7 7 7
5 3 3 3 3 2 2 1 3 2 1 1 2 3 2 3 3 3 4 4 5 7 7 8 7 8 12 11 10 10 10 10 10 10 10 10 10 9 9 9 8 8 8
5 3 3 4 2 2 3 3 2 3 2 1 1 1 1 3 3 3 3 3 4 5 6 8 7 5 6 11 11 10 11 11 10 10 10 10 10 10 10 10 9 9 9
5 5 4 3 3 2 2 1 1 1 2 3 2 1 1 1 2 4 3 4 4 4 5 7 6 6 6 5 8 13 12 11 11 10 10 10 9 9 10 10 10 10 10
5 3 5 3 3 3 3 3 3 3 1 1 2 1 1 1 1 1 3 3 3 3 3 4 6 6 6 6 6 11 13 12 11 11 10 10 10 9 10 10 11 11 11
5 5 4 4 2 2 4 4 4 2 2 1 1 1 1 2 1 1 2 2 4 4 4 4 5 6 5 4 6 10 13 12 11 11 10 10 10 10 10 10 11 11 11
5 5 5 4 3 2 4 3 3 2 1 2 2 2 2 2 2 2 2 2 2 3 4 4 2 3 5 5 5 8 13 12 10 9 8 8 9 9 10 11 12 12 11
4 5 5 4 4 3 3 3 2 3 2 1 1 1 1 1 2 1 2 2 2 2 3 3 2 3 3 4 6 10 13 11 10 8 8 7 8 8 9 10 10 11 11
4 5 6 5 4 3 3 3 3 2 3 2 1 1 1 1 1 1 0 1 1 1 2 2 2 2 3 3 3 10 11 11 9 8 7 7 7 7 7 8 8 9 9
5 6 6 5 5 4 5 4 3 4 3 2 3 2 2 1 1 1 0 0 1 1 1 2 2 2 1 3 5 8 6 10 9 8 7 6 6 5 5 5 6 6 6
4 6 6 6 5 5 4 4 3 3 3 3 3 3 2 2 1 1 1 0 0 1 1 1 0 1 1 3 5 3 3 8 9 7 7 6 5 5 4 4 4 4 4
3 5 6 6 6 5 5 4 4 3 4 3 2 1 2 1 1 1 1 1 1 0 1 1 0 2 2 2 4 1 1 5 7 7 6 6 5 4 3 3 2 2 2
3 4 4 5 5 5 5 5 4 4 4 3 2 2 1 0 2 2 2 1 1 1 1 1 1 2 3 3 2 0 0 2 3 6 5 4 4 3 3 2 2 1 1
3 4 4 4 4 5 4 4 4 3 3 3 2 1 1 0 1 1 2 2 1 1 0 1 1 2 2 2 1 1 2 1 1 4 6 5 4 3 2 2 1 1 1
3 3 3 3 2 3 4 4 3 2 3 3 3 3 2 2 2 2 2 2 2 2 1 0 0 1 2 2 2 3 3 2 2 3 4 4 3 3 2 3 3 4 3
3 3 2 2 2 2 3 4 4 4 4 4 4 5 4 4 3 3 3 3 3 2 2 1 2 2 3 3 3 3 3 3 3 3 4 3 3 4 4 5 6 6 5
3 3 3 3 3 3 3 4 4 5 5 6 6 7 8 10 11 7 5 4 4 3 3 3 3 3 3 4 3 3 3 2 3 3 3 2 1 1 2 5 6 5 5
4 5 5 5 5 4 6 7 5 5 6 6 6 6 7 9 12 13 14 13 10 6 5 4 4 4 5 5 4 4 3 3 2 2 2 2 1 0 1 2 5 5 4
6 6 7 7 7 7 9 9 9 7 7 6 6 5 6 7 7 7 10 12 13 13 10 6 6 4 4 4 4 4 4 3 3 3 2 2 2 3 2 2 6 5 4
6 6 7 7 7 8 9 10 10 9 8 8 7 7 7 6 6 6 8 9 8 8 8 7 5 4 4 3 3 3 4 4 2 3 3 2 3 3 4 1 5 6 5
7 7 7 7 8 7 9 9 9 8 8 9 8 8 7 7 9 8 7 7 6 5 7 8 6 4 4 5 5 4 5 4 3 3 4 3 3 4 3 2 1 4 6
8 7 8 8 8 7 8 8 7 6 8 8 8 9 12 10 10 10 7 6 5 3 3 2 1 1 1 2 4 4 4 4 4 3 4 4 4 4 4 3 4 3 3
Wind_Direction
138 137 130 155 182 162 170 184 164 134 143 159 154 113 97 111 129 129 136 148 148 152 156 158 159 157 158 158 157 157 156 154 152 151 150 149 150 152 154 151 149 150 150
126 136 141 169 172 144 146 150 134 130 150 133 107 113 122 116 116 133 142 152 157 162 167 170 169 170 171 172 173 172 172 170 169 167 168 168 167 169 171 171 170 168 165
138 147 147 178 147 121 120 135 142 149 162 158 140 127 118 111 125 127 144 159 165 172 176 179 178 180 184 186 187 187 187 187 186 183 183 183 182 185 188 188 187 188 187
149 153 157 159 140 138 160 157 161 158 166 147 145 155 138 135 138 145 159 165 165 172 184 188 186 188 192 196 198 198 198 198 197 196 195 196 197 197 199 201 202 203 201
152 160 141 128 164 155 169 187 152 163 160 155 164 165 167 163 166 183 175 170 168 166 172 186 193 195 201 204 206 206 205 205 204 205 205 207 209 208 208 209 210 211 212
161 168 150 154 187 170 159 115 124 110 113 195 216 159 172 169 178 183 189 179 173 180 174 174 184 202 209 209 210 211 212 211 210 212 214 215 216 215 214 215 215 216 218
168 171 152 155 191 154 154 155 154 163 188 189 161 151 197 188 184 180 191 179 183 186 168 170 185 187 197 211 213 212 215 216 214 215 218 220 221 219 217 218 219 221 223
180 174 164 171 174 142 149 162 152 180 207 190 179 145 202 211 226 197 182 190 186 181 183 187 186 180 189 182 205 211 214 217 217 218 219 221 223 222 221 221 222 224 226
186 183 167 184 174 173 169 187 183 200 227 207 184 170 167 191 209 220 201 182 179 181 196 190 192 186 193 181 187 204 211 214 218 222 223 222 223 224 225 226 226 227 228
185 186 176 178 174 182 165 193 188 195 199 228 198 193 162 127 150 191 240 193 188 190 204 209 200 184 191 180 173 184 199 207 215 221 224 224 224 224 225 227 231 232 232
194 189 176 175 189 203 171 175 146 192 212 227 223 197 188 178 212 183 206 208 207 197 195 208 199 183 189 179 171 181 190 198 205 214 222 228 229 229 229 232 236 238 237
194 195 181 180 188 199 169 159 156 193 231 266 285 260 189 187 218 209 198 206 211 211 188 183 197 198 185 177 190 179 182 190 197 206 217 225 230 232 234 238 242 245 245
187 191 182 177 189 188 172 171 175 212 209 224 255 286 295 257 232 244 202 245 232 211 185 184 195 194 188 161 158 166 177 185 193 204 215 224 232 237 241 243 245 249 253
186 171 170 179 188 189 192 178 185 200 197 203 228 243 291 286 285 266 210 249 288 266 203 207 190 171 164 137 153 167 175 187 193 201 212 222 228 234 241 247 251 252 255
182 168 174 182 187 187 189 173 201 205 170 190 222 216 236 275 270 289 328 350 265 285 274 268 74 91 110 113 142 174 161 180 188 192 200 209 218 226 233 241 246 251 258
186 168 181 186 186 184 187 190 206 194 174 192 214 213 207 286 318 341 19 3 3 305 290 357 37 66 51 89 124 141 122 152 179 189 196 201 205 209 218 232 244 256 270
168 169 184 190 187 188 189 192 209 193 184 190 216 204 176 323 11 12 20 12 5 6 300 320 43 56 59 44 69 335 145 132 164 187 185 184 188 191 194 197 207 224 271
177 176 182 190 196 188 184 188 198 189 168 169 179 127 114 164 77 5 9 356 352 11 16 321 2 37 42 40 19 342 12 51 81 147 166 164 164 163 168 163 144 105 68
176 171 174 185 195 174 159 162 158 138 124 117 104 87 67 49 49 39 26 2 359 360 43 166 3 45 43 22 22 12 16 27 20 98 131 141 139 140 141 123 108 92 78
153 146 145 156 146 130 130 134 131 121 107 95 87 80 69 60 48 37 36 15 357 354 14 37 54 53 39 17 29 7 6 16 13 27 45 73 119 124 116 111 108 101 90
129 113 107 101 97 100 106 117 119 123 114 102 91 85 78 77 69 62 58 37 25 27 31 38 54 54 39 28 16 346 3 358 21 28 14 7 78 116 130 129 123 118 111
96 95 91 88 82 80 80 96 110 109 107 108 106 101 95 84 82 78 73 63 54 51 43 49 51 55 42 23 4 359 14 2 347 3 350 325 350 8 143 138 146 147 150
91 87 85 86 83 70 74 86 94 95 92 91 91 88 87 76 79 86 82 71 59 53 55 66 67 54 44 17 2 358 1 342 308 316 329 324 359 2 358 107 162 179 194
96 93 92 91 86 72 75 87 95 92 86 80 81 87 88 74 61 76 84 75 64 51 56 69 73 62 58 23 358 345 339 328 327 8 11 348 359 350 345 320 213 214 230
94 91 88 86 86 74 70 87 100 100 92 80 70 65 70 69 57 69 88 91 86 76 72 80 89 92 69 36 18 11 5 358 358 16 18 3 351 339 321 311 291 243 262
94 89 84 81 82 76 62 73 92 107 103 96 84 72 64 67 60 57 73 77 73 51 52 82 99 124 96 47 37 35 20 2 354 359 22 5 352 348 328 336 351 319 297